Retour au catalogue

ZHONGDIAN NONGCHUANG

ActifScienceSSO
NORAD 57429·PAYLOAD·🇨🇳 China
Ce nom de satellite n'a pas encore été confirmé par des sources officielles.

Lancé Jul 23, 2023 depuis Taiyuan Satellite Launch Center

Loading…

Prochains Passages (prochaines 24 heures)

TLE

FraisSource: Space-Track

Époque: Sep 14, 2026, 11:31 UTC

1 57429U 23104F   26257.48009325  .00041615  00000-0  54159-3 0  9994
2 57429  97.2485 332.8857 0015645  64.9837 295.3041 15.58505635176368

Suivez ZHONGDIAN NONGCHUANG en temps réel avec AllMySat

Download on the App Store